This is the latest recevied weather packets stored in our database for station/object K0JSC-13. If no packets are shown the sender has not sent any weather packets the latest 10 day(s).
| Time | Temp. | Humidity | Pressure | Rain* | Wind** | Luminosity | Snow |
|---|---|---|---|---|---|---|---|
| 1777680543 | 14.44° C | 40% | 1000.9 hPa | 0 mm | - | - | - |
| 1777678564 | 14.44° C | 41% | 1001.1 hPa | 0 mm | - | - | - |
| 1777677483 | 13.89° C | 43% | 1001.2 hPa | 0 mm | - | - | - |
| 1777673343 | 14.44° C | 46% | 1001.5 hPa | 0 mm | - | - | - |
| 1777669203 | 13.89° C | 42% | 1002.7 hPa | 0 mm | - | - | - |
| 1777668303 | 13.89° C | 44% | 1002.8 hPa | 0 mm | - | - | - |
| 1777664163 | 13.33° C | 43% | 1003.7 hPa | 0 mm | - | - | - |
| 1777662004 | 12.22° C | 48% | 1004.3 hPa | 0 mm | - | - | - |
| 1777659483 | 11.11° C | 50% | 1004.7 hPa | 0 mm | - | - | - |
| 1777658043 | 10.56° C | 47% | 1004.9 hPa | 0 mm | - | - | - |
| 1777655343 | 10° C | 53% | 1005.1 hPa | 0 mm | - | - | - |
| 1777653498 | 10° C | 62% | 1005.3 hPa | 0 mm | - | - | - |
| 1777652417 | 8.89° C | 67% | 1005.2 hPa | 0 mm | - | - | - |
| 1777646164 | 6.11° C | 88% | 1005 hPa | 0 mm | - | - | - |
| 1777645623 | 5.56° C | 90% | 1005 hPa | 0 mm | - | - | - |
| 1777642024 | 3.89° C | 95% | 1005.1 hPa | 0 mm | - | - | - |
| 1777640538 | 3.33° C | 95% | 1004.9 hPa | 0 mm | - | - | - |
| 1777635903 | 2.78° C | 94% | 1004.7 hPa | 0 mm | - | - | - |
| 1777633743 | 2.78° C | 94% | 1005 hPa | 0 mm | - | - | - |
| 1777633338 | 2.78° C | 94% | 1005 hPa | 0 mm | - | - | - |
| 1777628703 | 3.33° C | 94% | 1005 hPa | 0 mm | - | - | - |
| 1777620558 | 3.89° C | 94% | 1005.8 hPa | 0.51 mm | - | - | - |
| 1777618803 | 3.89° C | 94% | 1005.9 hPa | 0.51 mm | - | - | - |
| 1777616283 | 3.33° C | 93% | 1005.9 hPa | 0.25 mm | - | - | - |
| 1777613224 | 3.33° C | 92% | 1005.7 hPa | 1.02 mm | - | - | - |
* Rain latest hour (hover to see other rain measurements)
** Current wind speed in m/s (hover to see current wind gust speed)